Regional Weather Roundup
Issued by NWS Charleston, SC

Current Version | Previous Version | Graphics & Text | Print | Product List | Glossary On
Versions: 1 2 3 4 5 6 7 8 9 10 11 12 13 14 15 16 17 18 19 20 21 22 23 24 25 26 27 28 29 30 31 32 33 34 35 36 37 38 39 40 41 42 43 44 45 46 47 48 49 50
838
ASUS42 KCHS 192212
RWRCHS

REGIONAL WEATHER ROUNDUP
NATIONAL WEATHER SERVICE CHARLESTON SC
500 PM EST SUN NOV 19 2017

NOTE: "FAIR" INDICATES FEW OR NO CLOUDS BELOW 12,000 FEET WITH NO
SIGNIFICANT WEATHER AND/OR OBSTRUCTIONS TO VISIBILITY.

NOT ALL STATIONS ARE QUALITY CONTROLLED. USE DATA WITH CAUTION...
ESPECIALLY DEWPOINT OBSERVATIONS.

SCZ027-030-031-034>040-042>050-192300-
...SOUTHEAST SOUTH CAROLINA...

CITY           SKY/WX    TMP DP  RH WIND       PRES   REMARKS
N CHARLESTON   CLEAR     61  39  44 NW8       29.90R
WATERFRONT PRK NOT AVBL
JOHNS ISLAND   FAIR      63  41  45 W8        29.90R
PINOPOLIS        N/A     63  46  55 NW13      29.79R
MONCKS CORNER  FAIR      59  32  36 NW3       29.90R
SUMMERVILLE    FAIR      63  32  31 NW5       29.91R
BEAUFORT MCAS  NOT AVBL
BEAUFORT ARPT  FAIR      61  43  51 W12       29.92R HAZE
HILTON HEAD IS NOT AVBL
WALTERBORO     CLEAR     61  41  48 W10       29.93R
ALLENDALE      FAIR      59  34  38 VRB5      29.93R

...SOUTHERN MIDLANDS AND PEE DEE...

CITY           SKY/WX    TMP DP  RH WIND       PRES   REMARKS
GEORGETOWN     FAIR      59  34  38 NW5       29.90R
KINGSTREE      NOT AVBL
ORANGEBURG     CLEAR     61  35  37 W10       29.92R
BARNWELL         N/A     61  34  36 W9        29.94R
AIKEN          FAIR      55  30  38 W10       29.98R
MANNING        FAIR      61  34  36 MISG      29.90R
COLUMBIA       CLEAR     61  35  37 W12       29.92R
SUMTER         CLEAR     59  21  23 NW9       29.89R
FLORENCE       CLEAR     60  29  30 NW6       29.90R
MYRTLE BEACH   CLEAR     61  33  35 NW6       29.88R
N MYRTLE BEACH CLEAR     61  32  33 NW3       29.86R

$$

GAZ063-065-086>088-099>101-113>116-118-119-134>141-150-192300-
...SOUTHEAST GEORGIA...

CITY           SKY/WX    TMP DP  RH WIND       PRES   REMARKS
SAVANNAH ARPT  CLEAR     62  38  40 NW10      29.94R
HUNTER AAF     CLEAR     62  39  43 W6        29.91R
FORT STEWART   CLEAR     62  35  37 NW6       29.93R
STATESBORO     CLEAR     60  30  32 NW8       29.96R
SYLVANIA       CLEAR     61  38  42 NW13      29.95R
CLAXTON        FAIR      63  33  33 W10       29.96R

...CSRA...CENTRAL AND FAR SOUTHEAST GEORGIA...

CITY           SKY/WX    TMP DP  RH WIND       PRES   REMARKS
THOMSON        CLEAR     56  33  41 N9        30.03R
AUGUSTA-BUSH   CLEAR     58  31  35 NW12      29.96R
AUGUSTA-DANIEL CLEAR     58  30  34 W10       29.96R
SWAINSBORO     FAIR      57  36  44 NW10      29.98R
VIDALIA        CLEAR     61  37  41 NW12      29.98R
EASTMAN        FAIR      60  18  19 NW6       30.03R
HAZLEHURST     FAIR      61  12  14 NW7       29.97R
ALMA           CLEAR     62  33  33 NW10      29.97R
WAYCROSS       CLEAR     62  27  26 N8        29.97R
JESUP          FAIR      64  34  32 NW7       29.96R
BAXLEY         FAIR      59  32  36 NW8       29.97R
BRUNSWICK      CLEAR     63  39  42 NW5       29.94R
SAINT SIMONS   CLEAR     64  42  44 NW9       29.93R

$$

SCZ027-028-034-036>038-045-046-048>050-GAZ119-141-192300-
...LAKE AND SUPPLEMENTAL COASTAL OBSERVATIONS...

STATION/POSITION TIME  TEMP    WIND        PRES    WAVE   SWELL
                       AIR SEA DIR/SP/G            HT/PER HT/PER/DIR
                 (UTC) (F)     (DEG/KT/KT) (MB)    (FT/S) (FT/S/D)
WINYAH BAY       2045   64     310/  9     1010.0
LAKE MURRAY      2120   61     270/ 11/ 18 1011.9R
ACE BASIN NERRS  2045   65     300/  3     1012.0
FORT PULASKI     2148   62 62  320/ 13/ 17 1013.5R
SAPELO ISLAND    2100   65     310/ 12     1013.0

$$

ANZ835-935-AMZ111-154-330-350-352-354-370-450-454-472-192300-
...C-MAN AND BUOY OBSERVATIONS...

STATION/POSITION TIME  TEMP    WIND        PRES    WAVE   SWELL
                       AIR SEA DIR/SP/G            HT/PER HT/PER/DIR
                 (UTC) (F)     (DEG/KT/KT) (MB)    (FT/S) (FT/S/D)
BUOY 41004       2150   65 74  310/ 16/ 21 1011.1R   5/ 7
BUOY 41008       2150   63 68  300/ 16/ 19 1012.8R   3/ 4   2/200/27
FOLLY BEACH CMAN 2200   62     300/  6/  8 1013.0R
CAPERS NEARSHORE 2108   62 63  330/ 10/ 16 1010.9R
FRIPP NEARSHORE  2108   62 62  290/ 17/ 25 1010.5F


STATION/POSITION TIME  TEMP    WIND        PRES    WAVE   SWELL
                       AIR SEA DIR/SP/G            HT/PER HT/PER/DIR
                 (UTC) (F)     (DEG/KT/KT) (MB)    (FT/S) (FT/S/D)
5E ST. MARYS GA  2130      68                N/A     2/ 3
FRYING PAN BUOY  2150   64 71  300/ 19/ 25 1010.1R   6/ 8   2/250/12
BUOY 41025       2200   61 65  320/ 16/ 21 1009.0
CAPE LOOKOUT NC  2100          330/ 12/ 17 1008.5R
BUOY 41002       2150   76 77  260/ 25/ 33 1007.4R  10/ 9   5/260/ 9
BUOY 41010       NOT AVBL
ST AUGUSTINE FL  2200   67 69  320/  8/ 11 1013.4R


$$




USA.gov is the U.S. government's official web portal to all federal, state and local government web resources and services.